• In Belarus
  • List of Countries
  • For 7 days
  • Water Temperature
  • Weather Map
  • Weather Widgets
  • user-avatar
    Login

    Hourly Weather Nizhnie Morozy

    Today, 21 September, Saturday

    Time Temperature Precipitation Wind Pressure Humidity
    00:00 +2°C° 0 mm 2 mps 751 mmHg 86%
    01:00 +2°C° 0 mm 2 mps 751 mmHg 88%
    02:00 +2°C° 0 mm 2 mps 751 mmHg 90%
    03:00 +3°C° 0 mm 2 mps 751 mmHg 88%
    04:00 +3°C° 0 mm 2 mps 751 mmHg 87%
    05:00 +3°C° 0 mm 3 mps 750 mmHg 86%
    06:00 +4°C° 0 mm 3 mps 750 mmHg 83%
    07:00 +4°C° 0 mm 4 mps 750 mmHg 80%
    08:00 +5°C° 0 mm 4 mps 749 mmHg 77%
    09:00 +5°C° 0.2 mm 5 mps 749 mmHg 80%
    10:00 +5°C° 0.2 mm 5 mps 748 mmHg 84%
    11:00 +5°C° 0.2 mm 5 mps 747 mmHg 87%
    12:00 +5°C° 0.5 mm 5 mps 747 mmHg 90%
    13:00 +6°C° 0.5 mm 5 mps 746 mmHg 93%
    14:00 +6°C° 0.5 mm 4 mps 746 mmHg 96%
    15:00 +7°C° 0.4 mm 5 mps 745 mmHg 96%
    16:00 +8°C° 0.4 mm 5 mps 745 mmHg 96%
    17:00 +9°C° 0.4 mm 5 mps 744 mmHg 95%
    18:00 +10°C° 0.4 mm 5 mps 744 mmHg 95%
    19:00 +10°C° 0.4 mm 6 mps 744 mmHg 94%
    20:00 +10°C° 0.4 mm 6 mps 744 mmHg 94%
    21:00 +10°C° 0.1 mm 6 mps 744 mmHg 93%
    22:00 +10°C° 0.1 mm 6 mps 744 mmHg 92%
    23:00 +10°C° 0.1 mm 7 mps 744 mmHg 91%

    Tomorrow, 22 September, Sunday

    Time Temperature Precipitation Wind Pressure Humidity
    00:00 +10°C° 0 mm 7 mps 744 mmHg 90%
    01:00 +10°C° 0 mm 7 mps 744 mmHg 89%
    02:00 +10°C° 0 mm 7 mps 744 mmHg 88%
    03:00 +9°C° 0 mm 7 mps 744 mmHg 88%
    04:00 +9°C° 0 mm 7 mps 744 mmHg 88%
    05:00 +9°C° 0 mm 6 mps 744 mmHg 89%
    06:00 +9°C° 0.1 mm 6 mps 744 mmHg 88%
    07:00 +9°C° 0.1 mm 6 mps 744 mmHg 87%
    08:00 +10°C° 0.1 mm 6 mps 744 mmHg 86%
    09:00 +10°C° 0.3 mm 6 mps 744 mmHg 84%
    10:00 +10°C° 0.3 mm 6 mps 744 mmHg 82%
    11:00 +10°C° 0.3 mm 6 mps 745 mmHg 80%
    12:00 +10°C° 0 mm 6 mps 745 mmHg 73%
    13:00 +10°C° 0 mm 6 mps 746 mmHg 67%
    14:00 +10°C° 0 mm 6 mps 746 mmHg 60%
    15:00 +10°C° 0 mm 5 mps 747 mmHg 61%
    16:00 +9°C° 0 mm 5 mps 747 mmHg 62%
    17:00 +8°C° 0 mm 4 mps 748 mmHg 63%
    18:00 +7°C° 0 mm 3 mps 748 mmHg 68%
    19:00 +5°C° 0 mm 3 mps 749 mmHg 73%
    20:00 +4°C° 0 mm 3 mps 750 mmHg 77%
    21:00 +3°C° 0 mm 3 mps 750 mmHg 82%
    22:00 +3°C° 0 mm 2 mps 750 mmHg 86%
    23:00 +2°C° 0 mm 2 mps 751 mmHg 90%

    Day after tomorrow, 23 September, Monday

    Time Temperature Precipitation Wind Pressure Humidity
    00:00 +2°C° 0 mm 2 mps 751 mmHg 91%
    01:00 +2°C° 0 mm 2 mps 752 mmHg 93%
    02:00 +1°C° 0 mm 2 mps 752 mmHg 94%
    03:00 +2°C° 0 mm 1 mps 752 mmHg 94%
    04:00 +2°C° 0 mm 1 mps 753 mmHg 94%
    05:00 +1°C° 0 mm 1 mps 753 mmHg 94%
    06:00 +2°C° 0 mm 1 mps 753 mmHg 88%
    07:00 +4°C° 0 mm 1 mps 753 mmHg 82%
    08:00 +5°C° 0 mm 1 mps 754 mmHg 76%
    09:00 +6°C° 0 mm 1 mps 754 mmHg 69%
    10:00 +8°C° 0 mm 1 mps 754 mmHg 62%
    11:00 +10°C° 0 mm 1 mps 754 mmHg 55%
    12:00 +10°C° 0 mm 1 mps 753 mmHg 53%
    13:00 +10°C° 0 mm 1 mps 753 mmHg 51%
    14:00 +10°C° 0 mm 1 mps 753 mmHg 49%
    15:00 +10°C° 0 mm 1 mps 753 mmHg 53%
    16:00 +10°C° 0 mm 1 mps 752 mmHg 57%
    17:00 +9°C° 0 mm 1 mps 752 mmHg 60%
    18:00 +8°C° 0 mm 1 mps 752 mmHg 63%
    19:00 +7°C° 0 mm 1 mps 752 mmHg 65%
    20:00 +5°C° 0 mm 1 mps 752 mmHg 68%
    21:00 +5°C° 0 mm 1 mps 752 mmHg 70%
    22:00 +5°C° 0 mm 1 mps 752 mmHg 72%
    23:00 +4°C° 0 mm 1 mps 752 mmHg 73%

    24 September, Tuesday

    Time Temperature Precipitation Wind Pressure Humidity
    00:00 +4°C° 0 mm 1 mps 752 mmHg 74%
    01:00 +4°C° 0 mm 1 mps 752 mmHg 75%
    02:00 +4°C° 0 mm 1 mps 752 mmHg 76%
    03:00 +3°C° 0 mm 1 mps 752 mmHg 77%
    04:00 +3°C° 0 mm 1 mps 752 mmHg 79%
    05:00 +2°C° 0 mm 1 mps 752 mmHg 81%
    06:00 +3°C° 0 mm 1 mps 752 mmHg 77%
    07:00 +4°C° 0 mm 1 mps 752 mmHg 73%
    08:00 +5°C° 0 mm 1 mps 751 mmHg 69%
    09:00 +7°C° 0 mm 1 mps 751 mmHg 64%
    10:00 +8°C° 0 mm 2 mps 751 mmHg 58%
    11:00 +9°C° 0 mm 2 mps 752 mmHg 52%
    12:00 +9°C° 0 mm 2 mps 751 mmHg 51%
    13:00 +11°C° 0 mm 1 mps 751 mmHg 49%
    14:00 +11°C° 0 mm 1 mps 751 mmHg 48%
    15:00 +10°C° 0 mm 1 mps 750 mmHg 52%
    16:00 +10°C° 0 mm 1 mps 750 mmHg 56%
    17:00 +9°C° 0 mm 1 mps 750 mmHg 60%
    18:00 +7°C° 0 mm 2 mps 750 mmHg 63%
    19:00 +6°C° 0 mm 2 mps 750 mmHg 65%
    20:00 +5°C° 0 mm 2 mps 750 mmHg 68%
    21:00 +5°C° 0 mm 2 mps 750 mmHg 69%
    22:00 +4°C° 0 mm 2 mps 750 mmHg 70%
    23:00 +4°C° 0 mm 2 mps 750 mmHg 72%

    25 September, Wednesday

    Time Temperature Precipitation Wind Pressure Humidity
    00:00 +4°C° 0 mm 2 mps 750 mmHg 71%
    01:00 +4°C° 0 mm 2 mps 750 mmHg 70%
    02:00 +5°C° 0 mm 1 mps 750 mmHg 70%
    03:00 +5°C° 0 mm 1 mps 750 mmHg 70%
    04:00 +4°C° 0 mm 1 mps 750 mmHg 71%
    05:00 +4°C° 0 mm 1 mps 750 mmHg 72%
    06:00 +4°C° 0 mm 2 mps 750 mmHg 71%
    07:00 +4°C° 0 mm 2 mps 750 mmHg 69%
    08:00 +5°C° 0 mm 2 mps 750 mmHg 68%
    09:00 +6°C° 0 mm 2 mps 750 mmHg 62%
    10:00 +7°C° 0 mm 2 mps 750 mmHg 56%
    11:00 +9°C° 0 mm 2 mps 750 mmHg 50%
    12:00 +9°C° 0 mm 2 mps 750 mmHg 49%
    13:00 +9°C° 0 mm 2 mps 750 mmHg 48%
    14:00 +10°C° 0 mm 2 mps 750 mmHg 47%
    15:00 +9°C° 0 mm 2 mps 750 mmHg 51%
    16:00 +8°C° 0 mm 2 mps 750 mmHg 55%
    17:00 +8°C° 0 mm 2 mps 750 mmHg 60%
    18:00 +7°C° 0 mm 2 mps 750 mmHg 63%
    19:00 +5°C° 0 mm 2 mps 750 mmHg 67%
    20:00 +4°C° 0 mm 2 mps 750 mmHg 71%
    21:00 +3°C° 0 mm 2 mps 750 mmHg 72%
    22:00 +3°C° 0 mm 2 mps 750 mmHg 73%
    23:00 +2°C° 0 mm 2 mps 751 mmHg 74%

    26 September, Thursday

    Time Temperature Precipitation Wind Pressure Humidity
    00:00 +2°C° 0 mm 2 mps 751 mmHg 75%
    01:00 +1°C° 0 mm 2 mps 751 mmHg 77%
    02:00 +1°C° 0 mm 2 mps 751 mmHg 78%
    03:00 +1°C° 0 mm 2 mps 751 mmHg 80%
    04:00 -1°C° 0 mm 2 mps 751 mmHg 81%
    05:00 -1°C° 0 mm 2 mps 751 mmHg 83%
    06:00 0°C° 0 mm 3 mps 751 mmHg 79%
    07:00 +1°C° 0 mm 3 mps 751 mmHg 75%
    08:00 +2°C° 0 mm 3 mps 751 mmHg 71%
    09:00 +4°C° 0 mm 4 mps 751 mmHg 65%
    10:00 +6°C° 0 mm 4 mps 751 mmHg 59%
    11:00 +7°C° 0 mm 4 mps 751 mmHg 53%
    12:00 +8°C° 0 mm 4 mps 751 mmHg 52%
    13:00 +8°C° 0 mm 4 mps 751 mmHg 51%
    14:00 +10°C° 0 mm 4 mps 750 mmHg 51%
    15:00 +8°C° 0 mm 4 mps 750 mmHg 55%
    16:00 +8°C° 0 mm 3 mps 750 mmHg 59%
    17:00 +8°C° 0 mm 3 mps 750 mmHg 63%
    18:00 +5°C° 0 mm 3 mps 750 mmHg 68%
    19:00 +4°C° 0 mm 3 mps 750 mmHg 72%
    20:00 +3°C° 0 mm 3 mps 750 mmHg 77%
    21:00 +2°C° 0 mm 3 mps 750 mmHg 78%
    22:00 +2°C° 0 mm 3 mps 751 mmHg 80%
    23:00 +1°C° 0 mm 3 mps 751 mmHg 81%
    Show more